Weather WX

World > North America > United States > Arizona

Iron Springs, Arizona Regional Weather

Lat: 34.58N, Lon: 112.57W
Wx Zone: AZZ008
Feedback

Iron Springs, AZ Regional Weather

Expires:201906241700;;007763
ASUS45 KPSR 241610
RWRAZ 

ARIZONA HOURLY REGIONAL WEATHER ROUNDUP
NATIONAL WEATHER SERVICE PHOENIX AZ
900 AM MST MON JUN 24 2019

NOTE: FAIR INDICATES FEW OR NO CLOUDS BELOW 12,000 FEET WITH NO
SIGNIFICANT WEATHER AND/OR OBSTRUCTIONS TO VISIBILITY.


AZZ004>008-015-016-018-241700-
NORTH CENTRAL ARIZONA
  
CITY           SKY/WX    TMP DP  RH WIND       PRES   REMARKS
GRAND CANYON   SUNNY     72  17  12 CALM      30.19S                  
WILLIAMS       SUNNY     72  19  14 SE5       30.20                   
PRESCOTT       SUNNY     74  17  11 NE3       30.10S                  
FLAGSTAFF      SUNNY     67  20  16 W7        30.22S                  
PAYSON         SUNNY     77  23  13 CALM      30.12                   
PAGE           SUNNY     71  27  19 VRB3      30.06S                  
$$


SKY/WX - Weather  TMP - Temperature  DP - Dew Point  RH - Relative Humidity
WIND - Wind Direction/Speed PRES - Barometric Pressure VSB - Visibility
WCI - Wind Chill Index E13G22 Wind - East Wind 13 mph/Gusts of 22 mph